Weather History for PHHI - February, 2012

Change the Weather History Date:

Sunday, February 5, 2012

  Actual Average Record
Temperature  
Mean Temperature 69 °F -  
Max Temperature 77 °F 74 °F 78 °F (1997)
Min Temperature 61 °F 61 °F 54 °F (2011)
Cooling Degree Days 4    
Growing Degree Days 19 (Base 50)    
Moisture  
Dew Point 64 °F    
Average Humidity 85    
Maximum Humidity 95    
Minimum Humidity 57    
Precipitation  
Precipitation 0.17 in - - ()
Sea Level Pressure  
Sea Level Pressure 29.84 in    
Wind  
Wind Speed 6 mph (NW)    
Max Wind Speed 17 mph    
Max Gust Speed 24 mph    
Visibility 9 miles    
Events Rain    
Averages and records for this station are not official NWS values.
T = Trace of Precipitation, MM = Missing Value Source: NWS Daily Summary

Daily Weather History Graph

Daily Weather History Graph

Search for Another Location

Airport or City:

Trip Planner

Search our weather history database for the weather conditions in past years. The results will help you decide how hot, cold, wet, or windy it might be!

Date:

Astronomy

Feb. 05, 2012 Rise Set
Actual Time 7:08 AM HST 6:24 PM HST
Civil Twilight 6:45 AM HST 6:47 PM HST
Nautical Twilight 6:18 AM HST 7:13 PM HST
Astronomical Twilight 5:52 AM HST 7:40 PM HST
Moon 4:42 PM HST (2/5) 5:18 AM HST (2/5)
Length of Visible Light 12h 02m
Length of Day
11h 16m
Waxing Gibbous, 95% of the Moon is Illuminated
Feb 5
Waxing Gibbous
Feb 7
Full
Feb 14
Last Quarter
Feb 21
New
Feb 29
First Quarter

Hourly Weather History & Observations

Time (HST) Temp. Dew Point Humidity Pressure Visibility Wind Dir Wind Speed Gust Speed Precip Events Conditions
12:55 AM 63.3 °F 61.5 °F 94% 29.83 in 10.0 mi Calm Calm - N/A   Partly Cloudy
1:55 AM 63.3 °F 61.2 °F 93% 29.82 in 10.0 mi Calm Calm - N/A   Clear
2:55 AM 64.4 °F 62.2 °F 93% 29.79 in 10.0 mi NE 3.5 mph - N/A   Clear
3:55 AM 61.5 °F 60.1 °F 95% 29.78 in 10.0 mi Calm Calm - N/A   Clear
4:55 AM 62.8 °F 60.3 °F 91% 29.78 in 10.0 mi Calm Calm - N/A   Clear
5:55 AM 62.8 °F 60.6 °F 93% 29.80 in 10.0 mi North 3.5 mph - N/A   Partly Cloudy
6:55 AM 62.8 °F 60.8 °F 93% 29.81 in 10.0 mi WNW 4.6 mph - N/A   Clear
7:55 AM 64.2 °F 62.2 °F 93% 29.83 in 10.0 mi Calm Calm - N/A   Clear
8:55 AM 71.6 °F 63.7 °F 76% 29.84 in 10.0 mi Calm Calm - N/A   Clear
9:55 AM 75.2 °F 63.9 °F 68% 29.86 in 10.0 mi SE 3.5 mph - N/A   Mostly Cloudy
10:55 AM 76.3 °F 62.1 °F 61% 29.86 in 10.0 mi West 6.9 mph - N/A   Mostly Cloudy
11:55 AM 77.7 °F 61.3 °F 57% 29.85 in 10.0 mi WSW 10.4 mph 17.3 mph N/A   Partly Cloudy
12:55 PM 74.1 °F 66.6 °F 77% 29.83 in 10.0 mi NNW 13.8 mph 24.2 mph N/A   Overcast
1:00 PM 73.4 °F 66.2 °F 78% 29.83 in 10.0 mi NNW 16.1 mph 20.7 mph N/A   Light Drizzle
1:39 PM 69.8 °F 66.2 °F 88% 29.83 in 10.0 mi NNW 9.2 mph - N/A   Mostly Cloudy
1:55 PM 70.7 °F 66.4 °F 86% 29.82 in 10.0 mi North 15.0 mph 20.7 mph 0.01 in   Mostly Cloudy
1:57 PM 71.6 °F 66.2 °F 83% 29.82 in 10.0 mi NNW 17.3 mph 20.7 mph N/A Rain Light Rain
2:10 PM 71.6 °F 64.4 °F 78% 29.81 in 10.0 mi NNW 15.0 mph 18.4 mph N/A   Mostly Cloudy
2:43 PM 71.6 °F 66.2 °F 83% 29.82 in 10.0 mi North 12.7 mph - N/A   Light Drizzle
2:55 PM 69.6 °F 65.7 °F 87% 29.82 in 10.0 mi NNW 10.4 mph - 0.00 in Rain Light Rain
3:14 PM 69.8 °F 66.2 °F 88% 29.82 in 6.0 mi NNW 10.4 mph - N/A Rain Light Rain
3:27 PM 69.8 °F 64.4 °F 83% 29.82 in 10.0 mi NNW 12.7 mph - N/A   Light Drizzle
3:28 PM 69.8 °F 64.4 °F 83% 29.82 in 10.0 mi NNW 10.4 mph - N/A   Mostly Cloudy
3:32 PM 71.6 °F 64.4 °F 78% 29.82 in 10.0 mi NNW 10.4 mph - N/A   Mostly Cloudy
3:36 PM 71.6 °F 64.4 °F 78% 29.82 in 10.0 mi NNW 11.5 mph - N/A   Mostly Cloudy
3:37 PM 71.6 °F 64.4 °F 78% 29.82 in 10.0 mi NNW 10.4 mph - N/A   Mostly Cloudy
3:40 PM 71.6 °F 64.4 °F 78% 29.82 in 10.0 mi North 10.4 mph 16.1 mph N/A   Mostly Cloudy
3:42 PM 71.6 °F 64.4 °F 78% 29.82 in 10.0 mi NNW 10.4 mph - N/A   Mostly Cloudy
3:43 PM 71.6 °F 64.4 °F 78% 29.82 in 10.0 mi NNW 11.5 mph - N/A   Mostly Cloudy
3:45 PM 71.6 °F 64.4 °F 78% 29.82 in 10.0 mi NNW 10.4 mph - N/A   Light Drizzle
3:55 PM 70.7 °F 65.5 °F 83% 29.83 in 8.0 mi WNW 11.5 mph - 0.01 in Rain Rain
3:59 PM 69.8 °F 66.2 °F 88% 29.83 in 2.0 mi NW 12.7 mph 19.6 mph N/A Rain Rain
4:00 PM 69.8 °F 66.2 °F 88% 29.83 in 1.8 mi WNW 12.7 mph 19.6 mph N/A Rain Heavy Rain
4:15 PM 68.0 °F 66.2 °F 94% 29.84 in 2.0 mi NNW 11.5 mph - N/A Rain Heavy Rain
4:17 PM 68.0 °F 66.2 °F 94% 29.84 in 2.5 mi NNW 10.4 mph - N/A Rain Light Rain
4:18 PM 68.0 °F 66.2 °F 94% 29.84 in 3.0 mi NNW 10.4 mph - N/A Rain Light Rain
4:37 PM 68.0 °F 66.2 °F 94% 29.85 in 8.0 mi NNW 10.4 mph - N/A Rain Light Rain
4:40 PM 68.0 °F 64.4 °F 88% 29.85 in 8.0 mi NNW 10.4 mph - N/A Rain Light Rain
4:49 PM 68.0 °F 64.4 °F 88% 29.85 in 10.0 mi NNW 11.5 mph - N/A   Light Drizzle
4:55 PM 67.1 °F 64.0 °F 90% 29.85 in 10.0 mi NNW 12.7 mph - 0.15 in Rain Light Rain
4:56 PM 66.2 °F 64.4 °F 94% 29.85 in 10.0 mi NW 11.5 mph - N/A   Scattered Clouds
5:55 PM 66.9 °F 63.7 °F 89% 29.87 in 10.0 mi WNW 4.6 mph - N/A   Partly Cloudy
6:55 PM 66.0 °F 62.8 °F 89% 29.88 in 10.0 mi WNW 5.8 mph - N/A   Overcast
7:55 PM 66.2 °F 62.2 °F 87% 29.90 in 10.0 mi WNW 4.6 mph - N/A   Mostly Cloudy
8:55 PM 66.7 °F 63.1 °F 88% 29.91 in 10.0 mi NW 4.6 mph - N/A   Overcast
9:55 PM 65.5 °F 62.8 °F 91% 29.91 in 10.0 mi West 5.8 mph - N/A   Mostly Cloudy
10:55 PM 65.5 °F 61.7 °F 88% 29.90 in 10.0 mi WNW 4.6 mph - N/A   Overcast
11:55 PM 66.2 °F 61.7 °F 85% 29.89 in 10.0 mi WNW 3.5 mph - N/A   Overcast